Location: Leiter
(44.7178°N, 106.2687°W)
Time: 22:00:55
(UTC+00:00)

DX 1 - Pass Details

Date: 04 July 2022
Orbit: 616 x 630 km, 98.4° (Epoch: 18 August)

Event Time Altitude Azimuth Distance (km) Brightness Sun altitude
Rises 04:05:39 0° 17° (NNE) 2,930 ? -10.5°
Reaches altitude 10° 04:07:53 10° 21° (NNE) 2,016 ? -10.7°
Maximum altitude 04:12:13 60° 101° (ESE) 720 ? -11.2°
Drops below altitude 10° 04:16:31 10° 182° (S) 1,993 ? -11.7°
Enters shadow 04:16:53 - 183° (S) 2,139 ? -11.8°
